Location: Del Amo
(33.8464°N, 118.2104°W)
Time: 03:05:40
(UTC+00:00)

SR - Pass Details

Date: 20 September 2024
Orbit: 578 x 855 km, 66.7° (Epoch: 06 October)

Event Time Altitude Azimuth Distance (km) Brightness Sun altitude
Rises 20:36:04 0° 252° (WSW) 2,805 ? 54.8°
Reaches altitude 10° 20:39:32 10° 282° (WNW) 1,891 ? 54.5°
Maximum altitude 20:41:23 13° 309° (NW) 1,726 ? 54.4°
Drops below altitude 10° 20:43:15 10° 335° (NNW) 1,893 ? 54.2°
Sets 20:46:44 0° 5° (N) 2,813 ? 53.9°
